Location: Chippewa Lake
(41.0698°N, 81.9010°W)
Time: 15:21:27
(UTC+00:00)

SL-8 Rocket - Pass Details

Date: 28 September 2021
Orbit: 957 x 990 km, 82.9° (Epoch: 24 October)

Event Time Altitude Azimuth Distance (km) Brightness Sun altitude
Rises 10:25:25 0° 10° (N) 3,708 7.3 -11.4°
Reaches altitude 10° 10:29:43 10° 38° (NE) 2,749 7.0 -10.6°
Maximum altitude 10:32:26 13° 64° (ENE) 2,531 7.4 -10.1°
Drops below altitude 10° 10:35:09 10° 90° (E) 2,734 8.0 -9.5°
Sets 10:39:21 0° 117° (ESE) 3,668 8.1 -8.8°
